sat.trackr.live / text

‹ back to catalog

RANDEV

NORAD 52898 · 2022-065E

PAYLOAD ACTIVE UNKNOWN

§ Identity

Operator
Country
SKOR
Launch date
2022-06-21
Launch site
NSC
Launch vehicle
Mass (kg)
RCS (m²)

External: N2YO · Heavens-Above · Gunter

§ Orbital elements

Epoch: 2026-05-25T04:01:00.581376Z

Period
98.38 min
Inclination
98.2185°
Eccentricity
0.0009258
Mean motion
14.63644827 rev/d
Perigee alt
674.9 km
Apogee alt
688.0 km
Semi-major
7,059.6 km
B*
1.4445e-4
RAAN
289.4858°
Arg perigee
96.6418°
Mean anomaly
263.5838°
Rev number
20,788

§ Raw data

RANDEV1 52898U 22065E   26145.16736784  .00000703  00000+0  14445-3 0  99972 52898  98.2185 289.4858 0009258  96.6418 263.5838 14.63644827207884

JSON: /api/v1/satellites/52898 · /tle

For live sub-satellite position, see the globe view (requires WebGL).

§ Visibility from observer

Set your observer location to see the next 7 days of passes ≥ 10°. The values pass through the URL so the page stays shareable.

No JS? Fill the form by hand. The geolocation button needs JavaScript.

§ Radio — SatNOGS DB

ModeDescriptionDownlinkUplink
BPSK Mode U - BPSK1k2 436.029 MHz
BPSK Mode U - BPSK9k6 (inactive) 436.029 MHz

2 transmitters · refreshed weekly from db.satnogs.org